Terminal Aerodrome Forecast
Issued by NWS

Home | Current Version | Previous Version | Text Only | Print | Product List | Glossary On
Versions: 1 2 3 4 5 6 7 8 9 10 11 12 13 14 15 16
280
FTUS42 TJSJ 290548
TAFJSJ
TAF
TJSJ 290548Z 2906/3006 VRB03KT P6SM VCSH FEW035 SCT100
     FM291330 09008KT P6SM VCSH SCT025 BKN100
     FM291700 09012KT P6SM VCTS SCT022CB BKN040 BKN090
     FM292200 12007KT P6SM SCT030 SCT100=

USA.gov is the U.S. government's official web portal to all federal, state and local government web resources and services.